Weather Roundup
Issued by NWS Chicago, IL

Home | Current Version | Previous Version | Text Only | Print | Product List | Glossary On
Versions: 1 2 3 4 5 6 7 8 9 10 11 12 13 14 15 16 17 18 19 20 21 22 23 24 25 26 27 28 29 30 31 32 33 34 35 36 37 38 39 40 41 42 43 44 45 46 47 48 49 50
000
NZUS59 KLOT 062002
HRRLOT

CHICAGO AREA WEATHER ROUNDUP
NATIONAL WEATHER SERVICE CHICAGO/ROMEOVILLE IL
300 PM CDT MON JUL 06 2015

NOTE: "FAIR" INDICATES FEW OR NO CLOUDS BELOW 12,000 FEET WITH NO
SIGNIFICANT WEATHER AND/OR OBSTRUCTIONS TO VISIBILITY.

* THESE STATIONS ARE NOT UNDER NWS QUALITY CONTROL. THEY ALSO MAY NOT
  REPORT WEATHER SUCH AS PRECIPITATION OR FOG.

ILZ005-006-012>014-019>023-062100-
NORTHEAST ILLINOIS

CITY           SKY/WX    TMP DP  RH WIND       PRES   REMARKS
OHARE          LGT RAIN  73  69  87 VRB3      29.91F
MIDWAY         TSTM      81  66  60 NW18G26   29.93R HX  83
AURORA         CLOUDY    77  69  76 S8        29.91F
WAUKEGAN       LGT RAIN  72  70  93 S6        29.89F
DUPAGE AIRPORT CLOUDY    72  69  90 S7        29.91S
WHEELING       LGT RAIN  73  68  84 CALM      29.93F
NORTHERLY IS     N/A     85  66  53 SW13        N/A  HX  87
$$

WIZ051-052-058>065-066-070>072-062100-
SOUTHEAST WISCONSIN

CITY           SKY/WX    TMP DP  RH WIND       PRES   REMARKS
MILWAUKEE      CLOUDY    77  70  79 S9        29.87F
KENOSHA*       LGT RAIN  73  70  90 S9        29.89F FOG
RACINE*        LGT RAIN  75  69  81 S8        29.90F
WAUKESHA       CLOUDY    73  72  94 SE8       29.86F
$$

INZ001>003-010>013-019-020-062100-
NORTHWEST INDIANA

CITY           SKY/WX    TMP DP  RH WIND       PRES   REMARKS
GARY*          PTSUNNY  N/A N/A N/A S14       29.93S
MICHIGAN CITY* NOT AVBL
RENSSELAER*    NOT AVBL
$$

LMZ740>746-062100-
SOUTHERN LAKE MICHIGAN

STATION/POSITION TIME  SKY/WX   TEMP WIND        PRES    VSBY
                                AIR  DIR/SP/G
                 (UTC)          (F)  (DEG/KT/KT) (MB)    (MI)
HARRISON CRIB    1900            78  180/ 15/ 17   N/A
BURNHAM HARBOR   1900            84  190/ 14/ 16   N/A
CALUMET HARBOR   1900            84  190/  8/ 15   N/A
BURNS HARBOR     1900            84  190/ 15/ 21 1013.9F
MICHIGAN CITY    1900            81  150/ 12/ 16   N/A
$$

ABBREVIATIONS USED IN REMARKS
   TC - TEMPERATURE IN CELSIUS
  WCI - WIND CHILL INDEX
   HX - HEAT INDEX
  VSB - VISIBILITY
$$



USA.gov is the U.S. government's official web portal to all federal, state and local government web resources and services.